Location: Newark
(48.8604°N, 2.3376°E)
Time: 22:27:08
(UTC+00:00)

XW-2C - Pass Details

Date: 13 December 2021
Orbit: 503 x 523 km, 97.5° (Epoch: 19 January)

Event Time Altitude Azimuth Distance (km) Brightness Sun altitude
Rises 06:07:17 0° 11° (N) 2,673 ? -13.7°
Reaches altitude 10° 06:09:24 10° 10° (N) 1,778 ? -13.4°
Maximum altitude 06:13:14 76° 285° (WNW) 547 ? -12.8°
Drops below altitude 10° 06:17:01 10° 200° (SSW) 1,756 ? -12.2°
Sets 06:19:06 0° 199° (SSW) 2,636 ? -11.9°
